CW1187 Weather Reports


Display with metric or nautical units.
time (UTC)temp
F
wind
direction
speed
MPH
gust
MPH
rain 1hr
in
rain 24hr
in
rain mn
in
humidity
%
barometer
mb
20190220133347 32 73 4.0 0.0 0.00 0.00 0.56 100 1012.3
20190220132331 32 99 6.0 0.0 0.00 0.00 0.56 100 1012.0
20190220131355 32 68 3.0 0.0 0.00 0.00 0.56 100 1011.8
20190220130339 32 68 3.0 0.0 0.00 0.00 0.56 100 1011.8
20190220125338 32 83 4.0 0.0 0.00 0.00 0.56 100 1012.2
20190220124350 32 104 3.0 0.0 0.00 0.00 0.56 100 1012.1
20190220123348 32 114 3.0 0.0 0.00 0.00 0.56 100 1012.1
20190220122334 32 85 3.0 0.0 0.00 0.00 0.56 100 1012.1
20190220121328 31 55 7.0 0.0 0.00 0.00 0.56 100 1011.6
20190220120346 31 88 8.0 0.0 0.00 0.00 0.56 100 1011.6
20190220115356 31 82 7.0 0.0 0.00 0.00 0.56 100 1012.6
20190220114351 31 95 6.0 0.0 0.00 0.00 0.56 100 1012.3
20190220113332 31 85 7.0 0.0 0.00 0.00 0.56 100 1012.3
20190220112356 31 62 7.0 0.0 0.00 0.00 0.56 100 1013.2
20190220111338 31 66 6.0 0.0 0.00 0.00 0.55 100 1015.0
20190220110358 31 55 5.0 0.0 0.00 0.00 0.54 100 1015.0
20190220105351 31 65 5.0 0.0 0.00 0.00 0.52 100 1014.6
20190220104346 31 52 6.0 0.0 0.00 0.00 0.50 100 1014.7
20190220103355 31 56 5.0 0.0 0.00 0.00 0.48 100 1014.7
20190220102353 31 49 7.0 0.0 0.00 0.00 0.46 100 1013.8
20190220101336 30 55 7.0 0.0 0.00 0.00 0.45 100 1014.7
20190220100354 30 52 4.0 0.0 0.00 0.00 0.43 100 1014.7
20190220095347 30 52 3.0 0.0 0.00 0.00 0.39 100 1015.2
20190220094337 30 66 3.0 0.0 0.00 0.00 0.34 100 1016.0
20190220093334 30 72 3.0 0.0 0.00 0.00 0.29 100 1016.0
20190220092329 30 68 3.0 0.0 0.00 0.00 0.22 100 1016.3
20190220091342 29 62 4.0 0.0 0.00 0.00 0.19 100 1016.3
20190220090400 29 59 4.0 0.0 0.00 0.00 0.17 100 1016.3
20190220085355 29 61 3.0 0.0 0.00 0.00 0.14 100 1017.0
20190220084337 29 72 3.0 0.0 0.00 0.00 0.13 100 1017.9
20190220083334 29 52 3.0 0.0 0.00 0.00 0.12 100 1017.9
20190220082344 28 65 3.0 0.0 0.00 0.00 0.11 100 1018.1
20190220081341 28 64 3.0 0.0 0.00 0.00 0.11 100 1018.7
20190220080402 28 66 3.0 0.0 0.00 0.00 0.10 100 1018.7
20190220075345 28 58 2.0 0.0 0.00 0.00 0.08 100 1019.7
20190220074343 28 68 3.0 0.0 0.00 0.00 0.06 100 1019.8
20190220073338 27 65 3.0 0.0 0.00 0.00 0.06 100 1019.8
20190220072339 27 64 3.0 0.0 0.00 0.00 0.05 99 1020.7
20190220071332 27 71 3.0 0.0 0.00 0.00 0.04 99 1021.2
20190220070344 27 52 3.0 0.0 0.00 0.00 0.04 98 1021.2
20190220065338 27 78 3.0 0.0 0.00 0.00 0.04 98 1022.2
20190220064335 27 66 2.0 0.0 0.00 0.00 0.03 97 1022.9
20190220063346 27 45 2.0 0.0 0.00 0.00 0.02 97 1022.9
20190220062338 27 64 2.0 0.0 0.00 0.00 0.02 97 1022.8
20190220061335 27 75 2.0 0.0 0.00 0.00 0.01 96 1023.5
20190220060343 27 93 2.0 0.0 0.00 0.00 0.01 94 1023.5
20190220055335 28 76 2.0 0.0 0.00 0.00 0.00 92 1024.3
20190220054331 28 92 2.0 0.0 0.00 0.00 0.00 88 1024.1
20190220053345 29 79 2.0 0.0 0.00 0.00 0.00 84 1024.1
20190220052343 30 86 2.0 0.0 0.00 0.00 0.00 79 1024.4
20190220051338 30 102 2.0 0.0 0.00 0.00 0.00 78 1024.4
20190220050346 29 75 2.0 0.0 0.00 0.00 0.00 79 1024.4
20190220045340 29 73 2.0 0.0 0.00 0.00 0.00 78 1024.8
20190220044335 29 75 4.0 0.0 0.00 0.00 0.00 79 1024.8
20190220043345 29 35 5.0 0.0 0.00 0.00 0.00 79 1024.8
20190220042338 29 88 5.0 0.0 0.00 0.00 0.00 79 1024.8
20190220041328 29 65 2.0 0.0 0.00 0.00 0.00 80 1024.5
20190220040336 29 52 3.0 0.0 0.00 0.00 0.00 80 1024.5
20190220035346 29 69 3.0 0.0 0.00 0.00 0.00 79 1025.0
20190220034339 29 75 3.0 0.0 0.00 0.00 0.00 80 1025.4
20190220033349 29 55 2.0 0.0 0.00 0.00 0.00 80 1025.4
20190220032334 29 66 3.0 0.0 0.00 0.00 0.00 80 1025.7
20190220031340 29 64 3.0 0.0 0.00 0.00 0.00 81 1026.1
20190220030350 29 80 3.0 0.0 0.00 0.00 0.00 80 1026.1
20190220025355 29 78 2.0 0.0 0.00 0.00 0.00 80 1026.2
20190220024341 29 89 3.0 0.0 0.00 0.00 0.00 80 1026.5
20190220023355 29 73 2.0 0.0 0.00 0.00 0.00 80 1026.5
20190220022343 29 55 3.0 0.0 0.00 0.00 0.00 80 1026.3
20190220021346 29 71 3.0 0.0 0.00 0.00 0.00 79 1027.0
20190220020329 29 62 5.0 0.0 0.00 0.00 0.00 79 1027.0
20190220015339 29 69 3.0 0.0 0.00 0.00 0.00 79 1027.2
20190220014336 29 76 3.0 0.0 0.00 0.00 0.00 78 1027.5
20190220013339 29 88 2.0 0.0 0.00 0.00 0.00 78 1027.5
20190220012331 29 69 2.0 0.0 0.00 0.00 0.00 77 1027.9
20190220011347 30 61 5.0 0.0 0.00 0.00 0.00 77 1028.0
20190220010341 30 65 5.0 0.0 0.00 0.00 0.00 76 1028.0
20190220005332 30 78 7.0 0.0 0.00 0.00 0.00 75 1028.1
20190220004354 30 66 5.0 0.0 0.00 0.00 0.00 74 1028.4
20190220003338 30 75 2.0 0.0 0.00 0.00 0.00 73 1028.4
20190220002401 30 65 5.0 0.0 0.00 0.00 0.00 73 1028.3
20190220001342 30 59 6.0 0.0 0.00 0.00 0.00 73 1028.5
20190220000401 30 65 6.0 0.0 0.00 0.00 0.00 72 1028.5
20190219235401 30 56 6.0 0.0 0.00 0.00 0.00 73 1028.9
20190219234344 30 58 5.0 0.0 0.00 0.00 0.00 73 1029.1
20190219233337 30 59 5.0 0.0 0.00 0.00 0.00 74 1029.1
20190219232330 30 65 6.0 0.0 0.00 0.00 0.00 73 1029.0
20190219231346 30 62 5.0 0.0 0.00 0.00 0.00 73 1029.1
20190219230401 30 56 4.0 0.0 0.00 0.00 0.00 74 1029.1
20190219225358 30 66 4.0 0.0 0.00 0.00 0.00 73 1029.5
20190219224341 30 61 5.0 0.0 0.00 0.00 0.00 72 1029.4
20190219223342 30 80 6.0 0.0 0.00 0.00 0.00 71 1029.4
20190219222330 30 56 5.0 0.0 0.00 0.00 0.00 71 1029.8
20190219221341 30 66 5.0 0.0 0.00 0.00 0.00 70 1029.8
20190219220330 30 55 5.0 0.0 0.00 0.00 0.00 70 1029.8
20190219215347 30 65 6.0 0.0 0.00 0.00 0.00 70 1029.4
20190219214344 30 64 6.0 0.0 0.00 0.00 0.00 70 1029.6
20190219213338 30 66 4.0 0.0 0.00 0.00 0.00 69 1029.6
20190219212335 30 51 2.0 0.0 0.00 0.00 0.00 69 1029.8
20190219211327 30 52 2.0 0.0 0.00 0.00 0.00 69 1030.2
20190219210333 30 40 2.0 0.0 0.00 0.00 0.00 66 1030.2
20190219205328 30 52 2.0 0.0 0.00 0.00 0.00 67 1029.9
20190219204345 30 52 6.0 0.0 0.00 0.00 0.00 65 1030.2
20190219203343 31 65 3.0 0.0 0.00 0.00 0.00 66 1030.2
20190219202332 30 78 3.0 0.0 0.00 0.00 0.00 66 1030.4
20190219201343 30 76 2.0 0.0 0.00 0.00 0.00 64 1030.4
20190219200329 31 52 2.0 0.0 0.00 0.00 0.00 66 1030.4
20190219195343 30 56 3.0 0.0 0.00 0.00 0.00 66 1030.4
20190219194338 31 44 6.0 0.0 0.00 0.00 0.00 67 1030.9
20190219193335 31 61 5.0 0.0 0.00 0.00 0.00 67 1030.9
20190219192330 31 68 6.0 0.0 0.00 0.00 0.00 66 1031.3
20190219191342 31 56 2.0 0.0 0.00 0.00 0.00 66 1031.4
20190219190328 31 96 3.0 0.0 0.00 0.00 0.00 65 1031.4
20190219185343 31 102 2.0 0.0 0.00 0.00 0.00 66 1031.5
20190219184347 31 64 2.0 0.0 0.00 0.00 0.00 66 1031.8
20190219183340 31 73 2.0 0.0 0.00 0.00 0.00 67 1031.8
20190219182340 31 65 2.0 0.0 0.00 0.00 0.00 68 1032.3
20190219181336 30 48 3.0 0.0 0.00 0.00 0.00 68 1032.4
20190219180345 30 51 2.0 0.0 0.00 0.00 0.00 66 1032.4
20190219175335 30 73 3.0 0.0 0.00 0.00 0.00 66 1033.3
20190219174348 30 55 5.0 0.0 0.00 0.00 0.00 67 1033.8
20190219173346 30 95 4.0 0.0 0.00 0.00 0.00 68 1033.8
20190219172338 30 82 4.0 0.0 0.00 0.00 0.00 66 1034.2
20190219171345 30 100 5.0 0.0 0.00 0.00 0.00 67 1034.1
20190219170338 30 71 4.0 0.0 0.00 0.00 0.00 67 1034.1
20190219165336 29 72 5.0 0.0 0.00 0.00 0.00 67 1034.0
20190219164331 30 78 3.0 0.0 0.00 0.00 0.00 66 1034.2
20190219163341 29 61 2.0 0.0 0.00 0.00 0.00 69 1034.2
20190219162338 29 69 2.0 0.0 0.00 0.00 0.00 70 1034.4
20190219161354 29 51 3.0 0.0 0.00 0.00 0.00 71 1034.5
20190219160348 28 110 2.0 0.0 0.00 0.00 0.00 72 1034.5
20190219155340 28 68 2.0 0.0 0.00 0.00 0.00 73 1034.6
20190219154357 28 58 2.0 0.0 0.00 0.00 0.00 74 1035.0
20190219153353 28 56 2.0 0.0 0.00 0.00 0.00 76 1035.0
20190219152350 26 58 3.0 0.0 0.00 0.00 0.00 77 1035.1
20190219151357 26 28 2.0 0.0 0.00 0.00 0.00 78 1035.3
20190219150344 25 27 2.0 0.0 0.00 0.00 0.00 78 1035.3
20190219145341 24 27 3.0 0.0 0.00 0.00 0.00 80 1035.4
20190219144354 24 27 2.0 0.0 0.00 0.00 0.00 81 1035.7
20190219143347 23 25 2.0 0.0 0.00 0.00 0.00 80 1035.7
20190219142333 22 25 3.0 0.0 0.00 0.00 0.00 81 1035.7
20190219141401 22 24 3.0 0.0 0.00 0.00 0.00 80 1035.6
20190219140353 22 18 3.0 0.0 0.00 0.00 0.00 80 1035.6
20190219135335 21 16 3.0 0.0 0.00 0.00 0.00 81 1035.5
20190219134334 20 346 3.0 0.0 0.00 0.00 0.00 82 1035.5